Location: Nitra
(0.0000°N, 18.0833°E)
Time: 13:25:16
(UTC+02:00)

N. Korean satellite - Pass Details

Date: 26 April 2021
Orbit: 450 x 501 km, 97.2° (Epoch: 15 May)

Event Time Altitude Azimuth Distance (km) Brightness Sun altitude
Rises 05:08:43 0° 36° (NE) 2,461 10.9 -23.5°
Reaches altitude 10° 05:11:13 10° 56° (NE) 1,585 10.1 -22.9°
Maximum altitude 05:13:36 18° 101° (E) 1,174 9.2 -22.3°
Drops below altitude 10° 05:15:59 10° 146° (SE) 1,581 9.4 -21.7°
Sets 05:18:28 0° 165° (SSE) 2,454 10.1 -21.1°
